TimePDT,TemperatureF,Dew PointF,Humidity,Sea Level PressureIn,VisibilityMPH,Wind Direction,Wind SpeedMPH,Gust SpeedMPH,PrecipitationIn,Events,Conditions,WindDirDegrees,DateUTC
12:53 AM,64.0,62.1,93,29.90,6.0,Calm,Calm,-,0.01,Rain,Light Rain,0,2013-08-29 07:53:00
1:46 AM,62.6,60.8,94,29.88,5.0,SSE,4.6,-,0.02,,Mostly Cloudy,160,2013-08-29 08:46:00
1:53 AM,63.0,61.0,93,29.90,5.0,Calm,Calm,-,0.02,,Mostly Cloudy,0,2013-08-29 08:53:00
2:16 AM,62.6,60.8,94,29.89,5.0,South,5.8,-,N/A,,Overcast,170,2013-08-29 09:16:00
2:24 AM,62.6,60.8,94,29.89,6.0,Variable,3.5,-,0.00,Rain,Light Rain,0,2013-08-29 09:24:00
2:53 AM,62.1,60.1,93,29.90,6.0,Calm,Calm,-,0.01,Rain,Light Rain,0,2013-08-29 09:53:00
3:53 AM,63.0,61.0,93,29.90,7.0,Calm,Calm,-,0.01,Rain,Light Rain,0,2013-08-29 10:53:00
4:53 AM,62.1,61.0,96,29.89,4.0,Calm,Calm,-,0.00,Rain,Light Rain,0,2013-08-29 11:53:00
5:45 AM,62.6,60.8,94,29.87,1.8,Calm,Calm,-,0.03,Rain,Light Rain,0,2013-08-29 12:45:00
5:53 AM,62.1,60.1,93,29.89,2.0,Calm,Calm,-,0.03,Rain,Light Rain,0,2013-08-29 12:53:00
6:50 AM,62.6,60.8,94,29.87,1.8,Calm,Calm,-,0.04,Rain,Light Rain,0,2013-08-29 13:50:00
6:53 AM,62.1,61.0,96,29.88,1.5,Calm,Calm,-,0.04,Rain,Light Rain,0,2013-08-29 13:53:00
7:18 AM,62.6,60.8,94,29.87,2.5,Calm,Calm,-,0.00,Rain,Light Rain,0,2013-08-29 14:18:00
7:53 AM,63.0,62.1,97,29.88,1.8,Calm,Calm,-,0.01,,Overcast,0,2013-08-29 14:53:00
8:23 AM,64.4,62.6,94,29.86,1.8,Calm,Calm,-,N/A,,Overcast,0,2013-08-29 15:23:00
8:37 AM,64.4,62.6,94,29.86,2.0,Calm,Calm,-,N/A,,Overcast,0,2013-08-29 15:37:00
8:39 AM,64.4,62.6,94,29.86,1.8,Calm,Calm,-,N/A,,Overcast,0,2013-08-29 15:39:00
8:53 AM,64.9,63.0,93,29.88,2.5,Calm,Calm,-,N/A,,Mostly Cloudy,0,2013-08-29 15:53:00
9:04 AM,66.2,64.4,94,29.86,3.0,Calm,Calm,-,N/A,,Mostly Cloudy,0,2013-08-29 16:04:00
9:48 AM,66.2,64.4,94,29.86,2.0,Calm,Calm,-,0.00,Rain,Light Rain,0,2013-08-29 16:48:00
9:53 AM,66.9,64.0,90,29.88,2.0,Calm,Calm,-,0.00,Rain,Light Rain,0,2013-08-29 16:53:00
10:53 AM,66.9,64.0,90,29.88,2.0,NE,3.5,-,0.02,Rain,Light Rain,50,2013-08-29 17:53:00
11:11 AM,68.0,64.4,88,29.86,3.0,Calm,Calm,-,0.00,Rain,Light Rain,0,2013-08-29 18:11:00
11:53 AM,68.0,64.9,90,29.90,4.0,Variable,3.5,-,0.02,Rain,Light Rain,0,2013-08-29 18:53:00
12:53 PM,68.0,63.0,84,29.90,7.0,ESE,6.9,-,0.03,Rain,Light Rain,120,2013-08-29 19:53:00
1:53 PM,69.1,61.0,75,29.91,10.0,SSE,9.2,-,0.01,Rain,Light Rain,150,2013-08-29 20:53:00
2:53 PM,72.0,62.1,71,29.91,10.0,SSE,11.5,18.4,0.01,,Scattered Clouds,150,2013-08-29 21:53:00
3:53 PM,72.0,59.0,64,29.92,10.0,South,11.5,19.6,N/A,,Mostly Cloudy,170,2013-08-29 22:53:00
4:53 PM,72.0,61.0,68,29.91,10.0,SSE,8.1,-,0.00,,Overcast,150,2013-08-29 23:53:00
5:53 PM,71.1,62.1,73,29.91,10.0,Variable,3.5,-,0.00,,Overcast,0,2013-08-30 00:53:00
6:53 PM,71.1,61.0,70,29.91,10.0,Calm,Calm,-,N/A,,Overcast,0,2013-08-30 01:53:00
7:53 PM,71.1,60.1,68,29.91,10.0,SE,11.5,18.4,N/A,,Overcast,140,2013-08-30 02:53:00
8:53 PM,71.1,59.0,66,29.91,10.0,SSE,18.4,28.8,N/A,,Mostly Cloudy,150,2013-08-30 03:53:00
9:53 PM,70.0,60.1,71,29.92,10.0,SSE,15.0,28.8,0.00,,Mostly Cloudy,160,2013-08-30 04:53:00
10:53 PM,70.0,59.0,68,29.92,10.0,SSE,16.1,23.0,N/A,,Clear,150,2013-08-30 05:53:00
11:53 PM,66.0,57.9,75,29.96,10.0,South,13.8,26.5,N/A,,Mostly Cloudy,180,2013-08-30 06:53:00